Helicity
516 500 523 528 495 585 598 545 620 520 380 373 408 278 297 308 333 259 286 345 342 328 297 244 223 197 173 199 179 133 136 123 104 97 104 103 108 116
581 589 576 670 686 756 765 656 634 482 412 403 370 353 329 362 361 308 293 280 344 360 341 332 249 245 212 267 166 131 122 109 100 97 104 112 113 120
620 624 648 749 847 932 794 732 656 564 441 515 344 329 342 351 404 348 404 304 337 411 385 449 325 261 261 237 172 166 132 125 109 95 107 102 115 120
632 599 638 751 898 1203 873 793 520 673 513 421 491 410 421 403 400 404 394 386 445 447 442 382 297 266 285 213 188 153 137 147 147 136 128 114 119 126
550 646 741 875 1014 989 1111 935 756 728 574 511 579 324 471 566 438 443 464 480 361 356 331 304 267 242 243 210 189 153 149 161 178 164 170 158 133 132
546 582 657 761 836 931 888 615 731 752 754 591 490 546 450 447 560 571 539 444 382 322 279 258 230 223 204 195 198 145 138 151 149 167 182 172 159 138
615 574 589 637 503 771 781 756 782 766 742 639 684 626 599 627 560 605 602 529 407 410 315 267 261 247 230 198 171 158 125 126 126 143 160 142 150 136
749 564 548 609 580 531 610 611 703 801 691 678 626 645 614 554 543 605 661 586 589 333 301 277 250 218 201 163 156 122 116 119 116 112 140 121 130 128
556 633 674 642 669 614 581 556 435 441 507 606 635 582 566 513 618 602 546 461 460 416 355 338 288 205 188 165 141 115 108 105 104 110 109 105 108 119
629 606 542 569 511 544 470 394 341 417 419 464 458 492 446 545 530 550 467 455 457 348 387 433 288 258 263 202 147 135 118 103 100 99 96 111 106 105
537 528 456 404 335 370 406 422 346 376 346 391 317 294 329 306 426 529 551 643 668 425 322 334 304 326 297 272 174 120 110 108 105 100 94 89 92 89
500 478 430 421 386 371 355 345 374 329 323 352 304 287 292 285 397 454 579 514 496 432 277 353 306 365 332 268 273 190 159 105 95 95 94 97 94 115
369 377 382 268 204 230 227 207 211 230 244 277 269 277 282 310 325 335 376 424 471 392 268 374 310 318 330 315 287 209 184 185 159 119 86 93 84 107
297 229 169 146 121 136 134 145 187 234 239 264 271 257 268 275 268 307 309 297 315 276 187 285 342 375 401 371 321 244 233 218 182 164 180 148 91 81
146 68 43 62 101 119 106 165 212 204 219 225 227 227 220 207 223 258 249 293 314 232 136 165 228 262 360 368 328 282 324 277 216 226 198 149 130 127
124 130 119 122 135 127 131 136 146 162 175 181 183 204 236 261 262 266 295 295 308 303 161 108 199 244 302 326 348 353 277 383 286 273 234 200 156 131
164 156 136 133 132 117 110 115 119 138 152 177 204 229 240 256 262 277 279 290 292 301 296 231 287 270 265 313 363 332 333 340 258 304 314 237 176 117
168 160 134 110 102 96 97 104 101 111 126 159 179 204 226 250 295 295 311 300 290 351 332 381 389 369 442 384 316 350 366 346 356 304 292 279 221 152
114 103 97 89 95 98 103 104 115 114 137 160 180 203 223 238 278 279 278 296 319 342 326 370 381 407 393 336 341 336 336 357 344 371 270 228 237 201
70 76 81 84 84 91 97 106 117 131 140 150 160 176 195 206 238 256 255 272 286 363 388 376 360 373 347 337 428 359 360 378 338 288 266 254 237 256
72 72 71 83 88 92 98 114 149 156 155 163 166 194 217 212 216 217 234 250 281 385 376 344 307 276 325 394 421 313 332 322 252 256 247 221 226 230
56 63 69 74 82 98 127 136 142 146 145 151 167 179 192 189 210 214 229 253 267 315 276 261 273 328 345 306 301 284 274 315 261 284 211 216 221 217
51 63 72 84 98 108 120 130 130 136 133 138 137 139 156 153 152 174 200 209 228 275 274 322 311 303 295 289 312 284 266 262 282 271 248 240 269 262
Wind_Speed
71 69 68 65 64 62 59 58 58 59 58 50 44 41 36 32 28 25 21 20 18 16 15 16 15 15 16 16 16 16 16 19 21 22 20 24 24 24
78 78 73 66 65 65 68 67 66 63 62 51 50 44 39 34 30 27 24 21 20 20 19 20 18 18 20 15 13 10 10 11 13 16 16 19 21 22
86 81 79 73 72 65 67 68 72 67 61 56 50 44 43 38 32 28 24 23 23 23 22 21 22 19 16 12 11 10 8 7 10 15 15 16 17 18
78 82 82 77 76 65 67 74 68 68 66 54 54 48 44 39 34 33 28 29 28 27 26 24 21 19 16 12 12 10 8 8 8 11 12 12 14 16
83 84 82 81 79 77 70 57 61 55 64 53 61 51 42 41 37 37 36 31 28 26 27 23 19 19 16 14 14 13 13 14 13 11 13 10 13 15
83 83 80 82 81 75 73 66 56 51 53 61 53 54 44 45 40 40 35 31 30 24 23 22 20 21 18 18 18 18 17 14 12 11 11 10 13 15
86 86 85 82 82 76 65 60 52 50 50 61 56 52 50 49 48 41 37 31 29 27 26 25 23 24 23 22 21 20 18 15 14 12 11 10 13 16
85 83 68 79 75 72 67 64 55 51 56 60 60 55 54 46 41 38 35 35 39 33 29 26 24 26 24 23 23 21 20 17 15 15 13 13 14 16
74 82 74 74 63 54 56 57 53 51 53 56 56 56 48 45 42 42 42 41 39 31 28 29 25 27 23 24 23 25 21 20 19 19 19 19 22 21
63 53 57 55 45 48 47 53 52 51 47 48 55 46 42 39 40 40 39 35 29 26 26 34 24 25 22 24 21 23 22 21 20 20 19 19 24 23
50 47 44 49 49 48 49 53 50 46 43 43 41 37 33 31 33 30 34 35 37 32 29 28 23 27 26 27 25 26 25 23 22 22 23 23 24 28
38 40 34 40 37 38 40 44 44 41 35 33 31 29 31 31 28 29 30 35 33 37 32 32 25 25 36 33 30 29 26 24 23 23 23 25 26 29
26 29 25 22 26 27 29 31 35 32 28 28 27 25 24 25 25 25 26 31 34 40 28 30 32 30 37 37 35 32 30 27 25 25 24 24 25 26
13 13 12 14 15 16 21 22 21 20 21 21 22 21 21 23 24 25 26 28 31 35 23 28 35 33 37 36 34 31 31 29 28 28 28 27 28 29
10 7 10 13 12 13 13 11 13 14 16 19 20 21 20 20 20 22 25 27 27 25 20 25 27 25 33 36 34 28 30 32 31 30 30 30 32 33
6 7 5 4 3 4 4 2 9 12 14 15 18 22 21 20 23 22 26 23 33 32 20 23 23 23 30 31 28 27 28 30 31 31 30 31 34 36
10 8 8 5 4 5 3 7 10 12 17 19 20 24 24 20 23 15 19 23 30 30 29 27 30 30 31 30 32 30 29 32 31 34 34 37 36 36
3 3 0 1 2 6 9 13 16 17 18 14 16 18 19 18 19 21 26 30 35 35 33 34 33 33 35 38 38 32 30 31 31 29 31 36 38 37
4 3 3 4 7 10 12 13 13 11 10 12 15 17 19 23 25 28 32 34 37 38 39 39 40 41 45 47 38 39 35 32 30 28 29 34 36 35
7 7 7 7 8 8 10 13 16 17 17 22 24 25 26 29 30 31 33 36 38 39 39 40 44 46 48 47 46 42 35 29 28 30 29 31 32 36
11 11 10 12 14 17 19 20 21 22 24 25 27 29 29 31 32 33 34 35 38 40 45 47 46 45 47 38 43 41 38 32 28 29 25 27 30 32
14 17 19 21 23 24 22 22 23 24 25 26 29 29 30 31 33 33 36 38 41 42 43 42 38 39 43 48 47 37 32 32 30 30 26 25 28 36
20 22 24 25 26 24 21 22 24 25 26 25 25 26 28 31 34 33 31 34 34 35 36 35 34 35 39 43 43 38 33 27 28 30 29 30 32 31
Wind_Direction
244 244 247 249 250 249 248 238 241 259 251 251 259 241 242 247 248 235 247 244 242 251 261 275 286 297 307 319 322 327 337 326 320 321 333 331 336 341
248 249 246 248 249 249 249 246 249 255 262 258 250 247 239 245 240 239 250 245 252 260 265 272 278 292 298 304 308 319 333 327 322 322 331 332 334 335
251 249 246 247 251 252 251 248 254 257 257 264 251 246 239 242 240 241 251 252 262 260 259 266 274 280 283 287 294 305 313 317 317 314 324 328 335 338
247 249 249 250 249 250 252 254 253 258 258 256 257 245 239 238 236 240 247 267 268 258 260 266 269 271 277 276 284 285 287 294 302 309 313 323 331 333
251 249 247 247 249 255 254 254 252 250 252 248 254 248 242 238 236 248 257 265 264 260 260 257 255 259 260 263 273 281 291 294 302 308 308 316 321 322
252 249 246 243 244 247 250 247 245 247 242 248 243 245 238 237 242 245 254 254 259 258 254 255 253 260 262 265 267 273 277 277 274 286 298 303 307 309
255 250 248 249 244 244 239 237 236 243 240 241 245 241 241 240 235 249 251 250 255 252 257 260 257 259 264 261 262 264 264 266 263 262 276 280 290 298
262 261 260 258 253 238 236 227 226 233 236 241 241 234 238 238 242 240 243 239 257 256 249 255 257 262 262 252 257 254 255 260 263 263 262 268 275 285
263 262 256 254 246 236 238 239 234 233 229 231 233 237 235 232 239 242 242 241 253 254 239 259 258 264 265 267 258 259 256 261 265 270 268 271 278 281
264 265 256 252 237 237 239 244 240 237 227 235 239 234 243 238 229 232 228 242 259 246 239 269 253 261 261 272 248 248 247 253 255 261 263 269 276 277
263 263 259 259 251 245 243 242 243 242 240 243 242 241 234 225 230 240 241 243 261 255 239 270 251 267 264 264 262 248 243 243 247 251 258 264 270 277
268 265 262 256 246 236 235 232 235 236 232 245 251 250 245 234 224 233 229 238 253 268 247 264 259 262 279 266 263 252 250 244 242 245 254 265 266 272
258 263 259 239 225 224 230 233 239 237 236 239 247 252 251 238 244 249 239 236 247 273 252 243 262 259 284 285 260 255 251 253 253 255 253 260 260 264
240 232 225 210 209 219 235 239 231 234 239 244 249 255 251 250 252 252 248 254 260 273 236 235 276 256 268 276 275 252 250 253 252 256 261 262 261 261
237 197 166 168 182 228 242 234 236 246 246 250 258 263 258 258 255 258 258 262 267 269 237 239 274 249 261 274 272 265 253 256 253 261 262 263 266 270
157 196 204 116 79 74 89 169 276 265 259 265 267 275 276 268 264 261 265 253 266 273 256 236 256 247 253 261 262 264 245 262 250 256 260 266 269 272
120 97 86 70 62 54 26 305 293 283 280 282 280 279 276 270 270 248 261 257 262 268 265 255 264 265 260 257 265 262 248 261 267 258 260 267 268 271
106 126 25 9 329 297 298 299 298 297 299 302 294 290 282 273 271 266 270 266 266 268 267 261 259 259 269 272 270 264 260 258 274 258 260 266 269 271
59 3 4 342 322 312 310 312 316 328 332 316 306 296 291 287 279 277 274 273 271 268 266 265 253 250 257 263 265 271 261 261 269 262 260 265 270 271
356 352 357 12 10 353 334 321 319 316 309 302 298 297 294 291 286 282 277 276 273 271 266 261 256 253 257 260 270 268 265 261 261 264 263 272 280 285
360 358 358 344 333 325 322 319 316 313 308 302 302 300 298 295 291 289 284 275 273 271 266 263 261 260 267 270 272 273 262 269 265 267 262 263 268 276
336 329 323 319 318 317 320 321 319 316 311 307 305 303 300 297 295 289 286 281 274 273 271 271 263 255 260 263 269 270 270 268 269 278 267 268 275 279
325 321 319 320 318 319 323 321 319 316 313 310 308 304 301 297 298 297 290 284 280 274 269 263 259 257 262 264 267 270 269 265 264 267 268 272 288 296